Weather in Klimkovice

Czech Republic     49°47′12″N   18°07′43″E
temp.,
°C
wind,
m/s
gust,
m/s
humid.,
%
clouds,
%
prec.,
mm/h
press.,
hPa
HPBL,
m
25 february, thu
thu2501:00+7ssw34780 0.0 103448
04:00+6ssw33750 0.0 103239
07:00+5sw23760 0.0 103235
10:00+11sw35630 0.0 1031224
13:00+15sw610520 0.0 1030728
16:00+13wsw610610 0.0 1029412
19:00+9sw36780 0.0 1030118
22:00+7ssw35810 0.0 103094
26 february, fri
fri2601:00+7ssw34840 0.0 103051
04:00+6sw23860 0.0 102933
07:00+5ssw23870 0.0 102929
10:00+10sw35740 0.0 1028261
13:00+13wsw35644 0.0 1028571
16:00+12nw257182 0.0 1026291
19:00+8n378991 0.4 1028657
22:00+6n4982100 1.1 1029746
27 february, sat
sat2701:00+4n248667 1.1 1030146
04:00+2nw24861 0.0 1030102
07:00+3n278738 0.1 1031394
10:00+5nnw477390 0.0 1031912
13:00+4n588086 0.1 1032766
16:00+3n467998 0.1 1031741
19:00+3n378093 0.1 1033502
22:00+3nne3678100 0.1 1034494
28 february, sun
sun2801:00+2nw2683100 0.1 1035249
04:00+2nne258499 0.0 1034275
07:00+1nne368992 0.0 1035513
10:00+2nne3482100 0.1 1035543
13:00+4nne346996 0.1 1034762
16:00+5ne236016 0.0 1034734
19:00+2ne12758 0.0 103525
22:00+1ne11790 0.0 103522
1 march, mon
mon101:00+1nne11810 0.0 103622
04:000nne11810 0.0 103521
07:000n11790 0.0 103522
10:00+4ne22580 0.0 1035339
13:00+8ne34480 0.0 1034609
16:00+7ne35520 0.0 1034350
19:00+3ene12660 0.0 103523
22:00+2se11720 0.0 103722